Theta_e
344 344 345 345 346 347 348 348 349 348 347 346 347 352 354 354 351 352 353 355 356 356 354 353 351 348 350 345 345 342 339 336 334 331 329 326 324 326 327 328 329 329 330
346 346 347 347 347 348 348 349 350 350 350 350 349 349 350 352 352 355 354 358 358 355 354 352 349 345 348 345 344 342 337 335 332 329 327 324 323 324 326 326 326 326 327
347 348 349 350 350 350 350 350 351 351 351 351 353 351 349 352 356 356 355 358 358 356 354 350 348 346 346 345 344 340 335 334 331 328 326 324 322 321 321 321 322 324 324
347 349 351 352 352 353 353 354 354 354 353 353 355 353 351 356 358 356 355 358 358 355 353 350 346 345 346 346 343 340 335 332 329 327 325 325 325 324 321 319 320 320 320
346 347 351 354 354 354 355 356 356 356 355 355 355 355 354 352 351 352 354 359 358 355 352 349 346 345 345 345 343 339 334 331 328 326 325 324 325 325 324 322 320 318 318
332 331 329 329 341 354 356 357 356 355 356 356 356 355 354 354 352 352 355 359 357 354 350 348 345 345 345 344 343 341 337 332 328 327 326 325 325 325 324 323 320 321 323
329 329 328 327 326 326 326 337 350 353 357 357 356 356 356 355 353 354 357 360 357 353 350 348 344 343 343 343 341 339 335 332 331 329 328 326 325 326 325 324 323 322 323
328 328 327 326 327 327 327 328 332 344 350 354 357 357 357 356 355 355 357 360 354 352 350 347 343 342 342 342 340 336 333 332 331 329 329 328 326 325 325 325 325 325 325
331 330 330 329 327 327 327 326 326 335 344 350 355 357 357 357 357 356 358 355 351 350 349 345 342 341 342 341 339 334 333 332 331 331 332 331 329 326 327 326 326 327 325
328 330 330 329 328 329 329 328 326 333 346 351 355 357 357 357 356 356 353 350 350 348 346 345 342 340 342 341 337 334 333 333 332 332 332 333 331 329 327 328 327 327 325
326 328 328 329 329 331 330 329 328 329 344 350 353 353 353 353 352 354 351 349 343 340 339 345 343 340 340 340 336 333 332 332 331 332 333 332 330 330 328 329 328 327 327
320 323 326 326 327 330 333 330 330 329 341 343 343 342 342 344 345 346 350 350 340 337 342 343 344 341 339 339 336 334 332 330 331 332 331 331 330 330 329 329 328 327 327
321 321 322 326 326 327 334 334 332 331 336 339 338 336 337 337 339 344 348 342 340 340 344 343 343 341 339 337 335 334 333 329 330 332 330 330 330 330 329 328 328 327 328
320 322 322 323 324 327 327 329 334 332 332 338 338 335 335 335 336 339 340 339 340 342 341 344 343 341 339 336 337 337 334 331 329 331 332 331 330 330 329 330 329 328 329
319 320 322 322 322 324 326 328 331 332 331 332 337 337 334 333 334 336 336 336 337 336 341 342 339 339 337 336 336 336 336 331 329 330 331 331 330 330 330 329 331 330 331
319 320 321 322 322 324 326 328 329 331 331 332 332 334 336 336 333 332 332 333 332 333 335 336 333 334 334 334 334 333 335 333 331 328 330 330 330 329 328 328 329 330 331
319 319 321 322 322 324 326 327 327 328 331 332 330 333 332 333 334 335 333 332 333 332 334 332 330 332 333 334 332 332 334 335 334 328 328 329 330 331 329 326 327 329 330
319 319 320 321 322 325 326 327 327 327 328 330 329 328 329 329 329 330 330 331 331 331 332 333 331 332 332 331 331 330 330 334 332 328 329 331 331 331 330 330 328 329 329
319 319 320 321 323 324 324 326 327 327 327 327 327 324 325 326 329 328 328 327 327 329 330 332 333 332 330 330 329 327 326 328 329 331 331 331 331 330 331 331 330 329 329
318 318 319 320 322 322 323 325 327 328 327 326 325 323 323 323 323 327 324 328 328 329 330 330 331 331 329 328 329 325 328 330 331 330 330 330 331 330 330 330 329 328 329
318 318 319 320 321 322 324 324 326 328 327 327 325 325 325 324 322 322 324 329 330 331 330 331 329 328 330 332 332 331 330 329 329 330 328 327 328 330 330 329 329 329 329
319 319 319 320 322 322 322 324 326 327 327 327 323 323 324 321 320 323 325 327 330 331 332 332 330 328 330 331 330 328 327 327 326 326 326 325 325 326 326 324 324 324 325
320 318 319 320 320 321 322 323 324 325 326 325 322 322 320 317 319 320 322 323 326 328 330 331 332 329 328 326 325 324 323 322 321 321 320 319 318 318 318 318 318 317 317
320 319 319 319 320 321 321 321 323 323 325 324 322 321 317 317 317 318 320 321 323 325 326 327 326 324 323 321 320 319 318 317 317 316 315 315 313 313 312 312 312 312 311
321 320 321 320 321 321 322 322 324 324 322 321 318 317 316 316 316 316 317 319 321 322 323 322 320 320 319 318 317 316 313 312 313 313 312 311 310 309 310 310 310 310 308
318 318 318 318 317 317 318 320 321 319 317 316 316 315 315 315 315 314 315 316 317 317 318 317 315 315 314 313 312 310 309 309 308 307 305 306 306 306 306 306 306 306 306
Wind_Speed
29 30 32 34 33 31 31 31 29 28 27 27 26 20 16 16 15 14 14 14 15 10 8 6 7 7 5 2 2 2 3 5 6 4 6 7 11 12 13 12 11 11 9
24 26 30 31 31 31 32 32 31 31 29 28 27 25 23 20 19 17 14 15 13 11 7 6 6 6 1 1 2 2 3 6 9 10 8 6 10 11 13 13 13 12 11
19 23 27 27 28 28 28 28 28 28 30 27 25 25 24 23 22 18 17 17 15 10 8 5 5 3 2 3 3 4 6 8 13 15 7 9 10 10 11 11 12 12 12
8 10 13 14 17 19 20 21 23 23 24 25 26 26 26 24 22 21 19 19 15 11 7 5 4 1 3 5 6 6 11 14 16 15 13 10 8 8 8 9 9 8 9
24 20 16 10 8 8 11 15 17 18 20 23 23 26 28 28 29 26 22 20 15 11 9 7 4 3 5 6 6 10 14 18 18 15 10 7 6 7 7 6 7 6 7
26 26 24 22 18 17 17 15 11 15 17 20 24 24 25 27 25 23 21 20 16 14 10 7 5 4 6 6 6 9 14 21 21 13 9 9 9 9 9 9 8 3 3
25 24 24 23 23 21 20 19 17 16 13 17 22 25 28 25 23 21 20 20 17 15 13 9 7 6 7 8 7 10 13 16 13 18 15 14 12 13 12 10 7 2 3
18 18 18 21 23 23 22 20 18 17 15 16 19 21 25 26 25 21 21 20 13 12 11 10 8 9 12 13 15 15 15 14 13 13 10 9 8 12 10 8 10 5 6
11 11 12 15 17 19 21 23 23 22 21 19 18 18 19 21 23 23 23 17 8 9 16 17 13 12 15 17 20 20 17 14 13 12 8 6 9 10 11 11 10 7 3
11 11 12 14 18 18 19 20 22 21 22 22 19 17 18 21 21 24 22 17 9 11 15 22 18 14 17 21 22 23 20 17 13 12 12 11 12 12 13 11 9 8 5
16 14 13 13 14 16 18 18 20 22 21 15 12 15 16 19 23 28 35 31 36 45 39 35 27 20 20 25 23 22 20 15 13 11 11 15 16 15 15 14 11 10 8
23 22 20 18 17 17 18 19 18 17 16 13 13 14 16 20 23 28 38 43 39 39 31 30 25 26 22 25 24 21 18 14 12 12 13 18 18 16 16 14 11 10 8
27 27 26 25 25 22 20 20 20 16 15 15 16 17 20 20 23 30 41 32 30 32 31 29 23 24 24 24 21 19 19 16 16 16 16 17 18 15 14 13 11 12 9
30 31 31 28 29 29 27 26 22 20 18 19 17 19 21 21 20 25 28 27 24 22 17 21 21 25 26 27 22 19 21 20 17 17 19 16 16 17 16 14 12 15 10
32 31 32 33 32 30 29 28 26 25 22 19 22 23 19 20 25 24 23 23 23 19 13 18 22 26 29 28 24 21 22 21 19 16 16 17 16 16 16 16 11 11 6
29 26 27 32 33 30 28 26 30 27 25 24 22 25 27 29 26 22 22 24 24 26 17 18 23 25 24 26 27 22 23 24 20 19 18 17 16 16 17 19 17 12 10
30 29 27 28 29 27 26 21 18 29 22 24 23 23 25 31 31 36 28 23 22 22 20 21 23 29 27 29 29 25 24 26 21 21 19 19 17 15 15 16 17 13 11
30 31 29 26 27 28 26 25 22 17 13 20 22 21 21 24 28 30 32 32 25 29 23 25 27 31 30 29 29 26 22 23 22 21 19 17 17 16 18 17 17 15 13
30 29 25 26 26 28 25 25 21 16 15 15 21 21 21 21 19 20 22 25 24 25 26 27 30 30 28 28 26 23 22 23 21 19 17 15 13 14 15 17 18 18 15
30 32 33 28 26 26 22 21 18 17 16 17 18 22 20 15 12 14 21 23 23 23 22 23 25 25 25 26 25 23 22 21 18 16 15 13 10 12 14 15 15 15 15
28 26 28 26 23 23 22 21 20 17 17 20 22 20 20 18 15 17 22 20 21 20 19 21 21 21 26 24 25 23 23 20 18 16 14 13 12 10 10 11 12 12 11
27 24 24 22 21 21 22 22 17 15 17 17 18 17 17 17 16 16 18 20 24 23 20 19 20 23 24 24 24 22 20 18 15 14 13 12 12 12 12 12 11 9 8
25 22 21 21 20 20 18 16 14 15 18 19 18 16 15 17 13 11 13 14 14 13 15 20 24 23 21 21 19 16 18 17 15 12 12 11 11 12 12 12 10 10 8
20 22 20 19 17 15 15 15 16 19 19 18 18 16 17 16 13 12 12 14 14 15 18 22 26 26 23 21 19 15 15 17 15 11 7 9 10 11 10 10 9 8 7
14 15 15 14 14 14 15 17 17 20 20 18 17 17 19 17 15 14 15 15 17 19 18 25 26 27 23 19 16 15 12 12 12 9 8 7 8 10 10 9 9 8 6
2 2 3 4 6 9 10 12 14 16 18 18 19 20 19 18 18 19 20 22 22 22 26 27 28 28 26 25 19 14 11 10 9 7 8 9 10 11 12 12 12 10 11
Wind_Direction
237 245 248 252 253 254 256 257 257 261 260 259 261 265 267 267 250 262 272 277 282 293 299 316 324 321 314 298 232 197 190 158 123 97 116 99 85 82 82 83 89 99 104
249 252 256 256 258 258 257 260 262 260 260 260 261 262 262 255 248 261 270 271 276 282 279 294 315 321 297 244 189 208 173 167 145 137 130 116 103 93 92 92 93 94 94
252 254 262 256 257 261 266 270 268 267 264 262 258 259 257 248 250 258 266 269 280 268 267 281 306 338 275 264 200 180 150 153 159 142 134 141 119 109 104 101 100 99 94
230 258 270 280 273 274 279 282 282 278 271 267 260 254 252 250 250 255 261 261 261 257 253 267 291 268 236 234 201 176 161 149 154 142 140 150 135 137 124 120 101 101 94
77 71 56 36 4 328 303 296 292 288 280 272 264 257 255 253 254 255 255 253 253 239 235 239 257 242 226 228 207 178 172 160 157 152 143 162 165 161 162 141 124 116 101
63 58 54 52 48 38 29 18 337 305 291 279 268 259 256 255 255 254 247 247 246 235 222 228 247 219 207 220 210 196 190 174 168 165 167 180 187 180 160 145 139 134 105
46 42 37 35 35 30 19 10 8 358 325 293 280 273 263 256 255 248 242 246 242 230 218 217 228 218 209 213 197 184 188 194 199 185 183 192 193 196 170 159 159 121 115
33 30 21 17 20 13 6 1 356 347 334 314 293 281 276 266 253 240 237 237 232 230 233 233 235 222 207 204 187 180 180 192 202 195 206 205 214 196 190 173 162 131 119
12 10 11 13 14 1 353 349 345 338 327 317 302 288 272 271 257 234 221 202 193 216 230 222 224 225 211 204 186 179 181 190 191 197 212 201 216 204 193 175 164 147 119
337 331 342 351 350 342 338 338 336 333 323 311 295 272 259 252 236 221 188 157 148 260 250 239 229 217 208 198 192 186 185 194 196 204 213 208 198 214 208 201 189 173 137
323 314 324 329 322 314 316 323 330 327 322 306 283 259 249 238 223 217 196 192 197 214 228 219 211 210 203 194 195 192 197 196 203 208 207 191 188 200 208 211 204 208 189
324 325 321 312 301 292 288 299 310 318 308 288 276 262 247 243 235 228 207 199 203 225 209 214 208 199 207 200 197 195 191 188 187 185 185 179 183 191 198 210 198 202 220
315 312 303 296 294 288 279 280 287 294 293 274 262 250 252 242 228 222 216 219 233 223 207 208 208 204 197 204 198 198 200 194 184 175 182 182 185 191 187 196 204 190 194
303 299 298 295 294 285 282 278 268 272 276 268 258 251 249 250 237 226 230 235 224 206 210 210 201 201 198 207 198 204 208 207 198 190 188 186 176 176 186 193 195 191 191
292 290 290 289 288 286 280 276 266 264 269 266 260 249 246 252 243 234 229 227 228 230 217 205 192 194 196 202 206 200 207 205 204 196 186 183 182 185 191 196 198 192 197
285 280 279 282 281 282 279 276 272 266 265 268 264 253 255 253 250 250 241 255 252 241 216 204 190 194 197 201 205 199 206 203 205 197 188 184 185 192 192 199 203 208 216
269 270 275 280 276 273 272 264 264 280 256 260 273 262 257 261 258 255 254 253 251 231 219 197 190 195 202 209 210 203 200 204 205 201 197 196 196 209 201 199 205 210 218
272 275 273 270 270 266 270 270 263 252 251 267 272 280 274 270 267 258 246 243 225 209 209 196 196 199 205 209 210 205 206 200 203 203 207 220 222 212 206 209 206 210 210
274 276 277 278 273 274 273 273 265 247 245 254 277 278 276 279 276 263 230 211 200 200 204 199 199 198 200 206 203 202 202 194 196 197 205 217 219 206 199 203 209 213 219
269 270 274 271 269 273 272 265 252 245 251 257 264 270 275 273 259 241 218 209 196 197 196 193 197 200 197 194 192 189 186 186 187 191 193 196 203 206 206 203 197 201 212
263 261 262 262 265 266 268 265 255 239 248 253 262 272 272 257 244 218 196 192 188 190 189 190 186 187 187 186 186 182 186 185 189 187 186 184 184 184 177 180 180 177 180
260 255 256 256 257 263 269 265 247 240 243 248 265 266 269 250 241 220 210 198 192 195 195 195 187 186 186 183 183 179 178 174 176 179 180 182 178 180 180 172 170 170 172
257 252 255 260 264 264 264 262 249 239 235 250 248 243 229 223 216 208 193 183 173 174 185 193 188 175 173 173 174 179 176 168 166 169 167 167 168 165 167 160 158 152 157
264 260 259 259 253 255 260 264 258 250 236 233 227 224 205 200 192 188 184 172 169 167 175 175 166 160 154 154 154 157 158 150 149 144 171 180 175 169 171 161 160 159 151
278 263 258 260 264 271 265 260 250 238 222 206 192 192 183 183 175 174 175 173 168 169 171 163 154 145 145 134 144 142 148 145 132 151 179 185 194 195 191 180 175 167 154
333 308 302 303 310 299 281 261 225 199 179 171 168 169 174 176 177 172 174 172 168 164 152 147 141 142 138 142 145 145 160 138 124 150 175 167 173 168 159 149 141 133 126